User: anonymous   Login
Location: Altoona
(40.5167°N, 78.4000°W)
Time: 20:21:49
(UTC-04:00)
Language:

SL-16 R/B - Orbit

View from above orbital plane
View from above orbital plane
View from above satellite
View from above satellite

Ground track
Ground track

The orbit data is extracted from the following two-line orbital elements,

1 31793U 07029B   18197.58294767 +.00000177 +00000-0 +11748-3 0  9994
2 31793 070.9753 280.7148 0002432 265.2749 192.2686 14.14397926570442
Epoch (UTC): 16 July 2018 13:59:26
Eccentricity: 0.0002432
inclination: 70.9753°
perigee height: 842 km
apogee height: 846 km
right ascension of ascending node: 280.7148°
argument of perigee: 265.2749°
revolutions per day: 14.14397926
mean anomaly at epoch: 192.2686°
orbit number at epoch: 57044

The dashed part of the orbit path shows where the satellite is in the earth's shadow,  

DLR